Flag for U.S.A. Weather past 2 weeks in San Diego, California, U.S.A.

Now
59 °F

Broken clouds.


Feels Like: 60 °F
Forecast: 58 / 69 °F
Wind: 3 mph from North

Location: San Diego - North Island

Current Time: Jan 29, 2015 at 7:23:49 AM

Latest Report: Jan 29, 2015 at 6:52 AM


Visibility: 10 mi

Pressure: 30.02 "Hg

Humidity: 78%

Dew point: 52 °F

Location of San DiegoLocation

Historic Weather in San Diego — Graph

°F

San Diego temperature yesterday

Maximum temperature yesterday: 73 °F (at 11:52 AM)
Minimum temperature yesterday: 53 °F (at 6:52 AM)
Average temperature yesterday: 61 °F

Past Weeks' High & Low Weather Summary

 TemperatureHumidityPressure
High76 °F (Jan 25, 12:52 PM)100% (Jan 19, 4:00 AM)30.24 "Hg (Jan 19, 4:00 AM)
Low45 °F (Jan 24, 5:52 AM)12% (Jan 23, 11:52 AM)29.93 "Hg (Jan 20, 3:52 PM)
Average59 °F65%30.09 "Hg
* Reported Jan 14 5:52 AM — Jan 29 5:52 AM, San Diego, Weather by CustomWeather, © 2014

Note: Actual official high and low records may vary slightly from our data, if they occured in-between our weather recording intervals... More about our weather records

Advertising

San Diego weather history for previous 24 hours

 ConditionsComfort  
Time TempWeatherWind HumidityBarometerVisibility
5:52 AM
Jan 29
60 °FPartly cloudy.3 mph72%30.00 "Hg10 mi
4:52 AM60 °FPartly cloudy.No wind72%29.99 "Hg10 mi
3:52 AM60 °FPassing clouds.7 mph75%29.99 "Hg10 mi
2:52 AM61 °FMostly cloudy.5 mph81%30.00 "Hg9 mi
1:52 AM60 °FMostly cloudy.3 mph83%30.02 "Hg9 mi
12:52 AM61 °FPassing clouds.No wind81%30.03 "Hg8 mi
11:52 PM
Jan 28
62 °FPassing clouds.7 mph80%30.05 "Hg8 mi
10:52 PM62 °FMostly cloudy.6 mph75%30.07 "Hg8 mi
9:52 PM61 °FMostly cloudy.No wind72%30.07 "Hg8 mi
8:52 PM63 °FOvercast.No wind68%30.07 "Hg10 mi
7:52 PM63 °FOvercast.5 mph60%30.07 "Hg10 mi
6:52 PM63 °FOvercast.No wind63%30.07 "Hg10 mi
5:52 PM66 °FMostly cloudy.7 mph56%30.06 "Hg10 mi
4:52 PM66 °FOvercast.9 mph54%30.06 "Hg10 mi
3:52 PM66 °FOvercast.9 mph63%30.04 "Hg10 mi
2:52 PM66 °FOvercast.12 mph68%30.05 "Hg10 mi
1:52 PM68 °FOvercast.10 mph47%30.04 "Hg10 mi
12:52 PM69 °FPartly sunny.12 mph49%30.04 "Hg10 mi
11:52 AM73 °FPartly sunny.5 mph38%30.07 "Hg10 mi
10:52 AM67 °FPartly sunny.3 mph55%30.10 "Hg10 mi
9:52 AM63 °FPartly sunny.No wind63%30.11 "Hg10 mi
8:52 AM60 °FPartly sunny.5 mph72%30.11 "Hg10 mi
7:52 AM55 °FPartly sunny.No wind83%30.11 "Hg10 mi
Weather by CustomWeather, © 2014

See weather overviewHow to use our weather pages